When you browse on this site, cookies collect data to enhance your experience and personalize the content and advertising you see.
Visit our Privacy Policy to learn more. By continuing to use the site, you agree to this use of cookies and data.
EN

Hourly Weather Las Tablas

Today, 12 July, Sunday

Time Temperature Precipitation Wind Pressure Humidity
00:00 +25°C° 0 mm 1 mps 753 mmHg 90%
01:00 +23°C° 0 mm 0 mps 753 mmHg 89%
02:00 +25°C° 0 mm 1 mps 753 mmHg 89%
03:00 +25°C° 0 mm 1 mps 753 mmHg 90%
04:00 +25°C° 0 mm 1 mps 752 mmHg 90%
05:00 +25°C° 0 mm 1 mps 753 mmHg 89%
06:00 +25°C° 0 mm 1 mps 753 mmHg 89%
07:00 +26°C° 0 mm 1 mps 753 mmHg 89%
08:00 +27°C° 0 mm 1 mps 753 mmHg 83%
09:00 +28°C° 0 mm 1 mps 753 mmHg 78%
10:00 +27°C° 0 mm 0 mps 754 mmHg 72%
11:00 +30°C° 0 mm 1 mps 753 mmHg 70%
12:00 +31°C° 0 mm 1 mps 753 mmHg 68%
13:00 +31°C° 0 mm 2 mps 752 mmHg 67%
14:00 +31°C° 0 mm 2 mps 752 mmHg 68%
15:00 +31°C° 0 mm 2 mps 751 mmHg 69%
16:00 +30°C° 0 mm 2 mps 750 mmHg 71%
17:00 +30°C° 0 mm 2 mps 750 mmHg 75%
18:00 +29°C° 0 mm 2 mps 751 mmHg 79%
19:00 +28°C° 0 mm 1 mps 751 mmHg 83%
20:00 +27°C° 0 mm 1 mps 752 mmHg 84%
21:00 +27°C° 0 mm 1 mps 752 mmHg 85%
22:00 +27°C° 0 mm 1 mps 753 mmHg 86%
23:00 +27°C° 0 mm 1 mps 753 mmHg 86%

Tomorrow, 13 July, Monday

Time Temperature Precipitation Wind Pressure Humidity
00:00 +27°C° 0 mm 1 mps 753 mmHg 86%
01:00 +27°C° 0 mm 2 mps 753 mmHg 86%
02:00 +27°C° 0.6 mm 1 mps 752 mmHg 87%
03:00 +26°C° 0.6 mm 1 mps 752 mmHg 88%
04:00 +26°C° 0.6 mm 1 mps 751 mmHg 89%
05:00 +26°C° 0.4 mm 1 mps 752 mmHg 89%
06:00 +27°C° 0.4 mm 1 mps 752 mmHg 89%
07:00 +27°C° 0.4 mm 1 mps 753 mmHg 89%
08:00 +27°C° 1.5 mm 1 mps 753 mmHg 85%
09:00 +28°C° 1.5 mm 1 mps 753 mmHg 82%
10:00 +29°C° 1.5 mm 1 mps 754 mmHg 79%
11:00 +30°C° 0.9 mm 1 mps 753 mmHg 75%
12:00 +31°C° 0.9 mm 1 mps 753 mmHg 72%
13:00 +31°C° 0.9 mm 1 mps 752 mmHg 68%
14:00 +31°C° 0.1 mm 1 mps 751 mmHg 68%
15:00 +31°C° 0.1 mm 2 mps 751 mmHg 69%
16:00 +31°C° 0.1 mm 2 mps 750 mmHg 69%
17:00 +30°C° 0.9 mm 2 mps 751 mmHg 75%
18:00 +29°C° 0.9 mm 2 mps 751 mmHg 81%
19:00 +28°C° 0.9 mm 2 mps 751 mmHg 88%
20:00 +28°C° 0.6 mm 2 mps 752 mmHg 87%
21:00 +28°C° 0.6 mm 1 mps 752 mmHg 86%
22:00 +28°C° 0.6 mm 1 mps 753 mmHg 86%
23:00 +27°C° 0.3 mm 1 mps 752 mmHg 86%

Day after tomorrow, 14 July, Tuesday

Time Temperature Precipitation Wind Pressure Humidity
00:00 +27°C° 0.3 mm 1 mps 752 mmHg 87%
01:00 +27°C° 0.3 mm 1 mps 752 mmHg 87%
02:00 +27°C° 1.4 mm 1 mps 751 mmHg 88%
03:00 +27°C° 1.4 mm 1 mps 751 mmHg 89%
04:00 +27°C° 1.4 mm 2 mps 751 mmHg 89%
05:00 +27°C° 0.3 mm 1 mps 751 mmHg 88%
06:00 +27°C° 0.3 mm 1 mps 751 mmHg 88%
07:00 +25°C° 0.3 mm 0 mps 752 mmHg 87%
08:00 +28°C° 0.3 mm 1 mps 752 mmHg 83%
09:00 +29°C° 0.3 mm 1 mps 752 mmHg 79%
10:00 +30°C° 0.3 mm 2 mps 753 mmHg 76%
11:00 +29°C° 0.3 mm 2 mps 752 mmHg 78%
12:00 +29°C° 0.3 mm 1 mps 752 mmHg 81%
13:00 +28°C° 0.3 mm 1 mps 751 mmHg 84%
14:00 +29°C° 0 mm 1 mps 751 mmHg 81%
15:00 +29°C° 0 mm 1 mps 750 mmHg 78%
16:00 +30°C° 0 mm 1 mps 750 mmHg 76%
17:00 +29°C° 0 mm 1 mps 750 mmHg 78%
18:00 +29°C° 0 mm 1 mps 750 mmHg 81%
19:00 +28°C° 0 mm 1 mps 751 mmHg 84%
20:00 +28°C° 0 mm 1 mps 751 mmHg 85%
21:00 +27°C° 0 mm 1 mps 752 mmHg 87%
22:00 +27°C° 0 mm 1 mps 752 mmHg 89%
23:00 +27°C° 0 mm 1 mps 752 mmHg 89%

15 July, Wednesday

Time Temperature Precipitation Wind Pressure Humidity
00:00 +27°C° 0 mm 1 mps 752 mmHg 90%
01:00 +26°C° 0 mm 1 mps 752 mmHg 90%
02:00 +26°C° 0.1 mm 1 mps 751 mmHg 90%
03:00 +26°C° 0.1 mm 1 mps 751 mmHg 90%
04:00 +26°C° 0.1 mm 1 mps 751 mmHg 90%
05:00 +26°C° 0 mm 1 mps 751 mmHg 89%
06:00 +27°C° 0 mm 1 mps 751 mmHg 89%
07:00 +25°C° 0 mm 0 mps 751 mmHg 88%
08:00 +28°C° 1.4 mm 1 mps 752 mmHg 83%
09:00 +29°C° 1.4 mm 1 mps 752 mmHg 78%
10:00 +30°C° 1.4 mm 1 mps 752 mmHg 73%
11:00 +30°C° 1.9 mm 1 mps 752 mmHg 73%
12:00 +30°C° 1.9 mm 1 mps 752 mmHg 73%
13:00 +30°C° 1.9 mm 1 mps 751 mmHg 73%
14:00 +31°C° 1.2 mm 1 mps 751 mmHg 72%
15:00 +31°C° 1.2 mm 1 mps 750 mmHg 72%
16:00 +31°C° 1.2 mm 1 mps 750 mmHg 71%
17:00 +30°C° 0.4 mm 1 mps 750 mmHg 75%
18:00 +29°C° 0.4 mm 1 mps 750 mmHg 79%
19:00 +28°C° 0.4 mm 1 mps 750 mmHg 82%
20:00 +28°C° 0 mm 2 mps 751 mmHg 84%
21:00 +27°C° 0 mm 2 mps 751 mmHg 86%
22:00 +27°C° 0 mm 3 mps 752 mmHg 87%
23:00 +27°C° 0 mm 2 mps 752 mmHg 87%

16 July, Thursday

Time Temperature Precipitation Wind Pressure Humidity
00:00 +26°C° 0 mm 2 mps 751 mmHg 86%
01:00 +26°C° 0 mm 2 mps 751 mmHg 86%
02:00 +26°C° 0.5 mm 2 mps 751 mmHg 86%
03:00 +26°C° 0.5 mm 2 mps 751 mmHg 87%
04:00 +26°C° 0.5 mm 2 mps 751 mmHg 87%
05:00 +26°C° 0.2 mm 2 mps 751 mmHg 87%
06:00 +26°C° 0.2 mm 2 mps 751 mmHg 88%
07:00 +26°C° 0.2 mm 1 mps 751 mmHg 88%
08:00 +27°C° 0.8 mm 1 mps 752 mmHg 85%
09:00 +28°C° 0.8 mm 1 mps 752 mmHg 82%
10:00 +28°C° 0.8 mm 1 mps 753 mmHg 79%
11:00 +28°C° 1.3 mm 1 mps 753 mmHg 82%
12:00 +28°C° 1.3 mm 1 mps 752 mmHg 85%
13:00 +27°C° 1.3 mm 1 mps 752 mmHg 88%
14:00 +27°C° 0.7 mm 2 mps 752 mmHg 89%
15:00 +26°C° 0.7 mm 3 mps 751 mmHg 90%
16:00 +26°C° 0.7 mm 4 mps 751 mmHg 91%
17:00 +26°C° 0.1 mm 3 mps 751 mmHg 90%
18:00 +26°C° 0.1 mm 3 mps 751 mmHg 89%
19:00 +26°C° 0.1 mm 3 mps 751 mmHg 88%
20:00 +26°C° 0 mm 3 mps 751 mmHg 89%
21:00 +26°C° 0 mm 3 mps 752 mmHg 90%
22:00 +26°C° 0 mm 3 mps 752 mmHg 91%
23:00 +26°C° 0 mm 3 mps 752 mmHg 91%

17 July, Friday

Time Temperature Precipitation Wind Pressure Humidity
00:00 +26°C° 0 mm 4 mps 752 mmHg 91%
01:00 +26°C° 0 mm 4 mps 751 mmHg 90%
02:00 +26°C° 0 mm 4 mps 751 mmHg 89%
03:00 +26°C° 0 mm 4 mps 751 mmHg 89%
04:00 +26°C° 0 mm 3 mps 751 mmHg 88%
05:00 +26°C° 0 mm 3 mps 751 mmHg 88%
06:00 +26°C° 0 mm 3 mps 751 mmHg 88%
07:00 +26°C° 0 mm 3 mps 752 mmHg 87%
08:00 +27°C° 0 mm 3 mps 752 mmHg 82%
09:00 +29°C° 0 mm 4 mps 752 mmHg 77%
10:00 +30°C° 0 mm 4 mps 753 mmHg 71%
11:00 +30°C° 0 mm 3 mps 752 mmHg 70%
12:00 +30°C° 0 mm 3 mps 752 mmHg 69%
13:00 +30°C° 0 mm 2 mps 752 mmHg 68%
14:00 +30°C° 0 mm 2 mps 751 mmHg 69%
15:00 +30°C° 0 mm 2 mps 750 mmHg 70%
16:00 +30°C° 0 mm 2 mps 750 mmHg 71%
17:00 +29°C° 0 mm 2 mps 750 mmHg 75%
18:00 +29°C° 0 mm 1 mps 750 mmHg 78%
19:00 +28°C° 0 mm 1 mps 750 mmHg 82%
20:00 +28°C° 0 mm 1 mps 751 mmHg 82%
21:00 +28°C° 0 mm 2 mps 751 mmHg 82%
22:00 +28°C° 0 mm 2 mps 752 mmHg 81%
23:00 +27°C° 0.1 mm 2 mps 752 mmHg 83%
Show more